| time (UTC) | temp F | wind direction | speed knots | gust knots | rain 1hr in | rain 24hr in | rain mn in | humidity % | barometer mb |
| 20260505152504 | 51 | 192 | 4.3 | 10.4 | 0.00 | 0.00 | 0.00 | 39 | 1013.8 |
| 20260505152004 | 50 | 209 | 6.1 | 10.4 | 0.00 | 0.00 | 0.00 | 41 | 1013.8 |
| 20260505151505 | 49 | 175 | 6.1 | 8.7 | 0.00 | 0.00 | 0.00 | 41 | 1013.8 |
| 20260505151004 | 49 | 162 | 5.2 | 8.7 | 0.00 | 0.00 | 0.00 | 40 | 1013.8 |
| 20260505150504 | 49 | 169 | 5.2 | 8.7 | 0.00 | 0.00 | 0.00 | 41 | 1013.8 |
| 20260505140505 | 47 | 172 | 3.5 | 5.2 | 0.00 | 0.00 | 0.00 | 41 | 1014.7 |
| 20260505125005 | 47 | 160 | 7.0 | 10.4 | 0.00 | 0.00 | 0.00 | 40 | 1014.9 |
| 20260505124004 | 47 | 160 | 5.2 | 8.7 | 0.00 | 0.00 | 0.00 | 40 | 1014.8 |
| 20260505123505 | 47 | 170 | 4.3 | 8.7 | 0.00 | 0.00 | 0.00 | 40 | 1014.7 |
| 20260505123005 | 46 | 159 | 5.2 | 8.7 | 0.00 | 0.00 | 0.00 | 41 | 1014.7 |
| 20260505122504 | 46 | 168 | 2.6 | 6.1 | 0.00 | 0.00 | 0.00 | 41 | 1015.0 |
| 20260505121505 | 47 | 165 | 4.3 | 6.1 | 0.00 | 0.00 | 0.00 | 40 | 1015.0 |
| 20260505121005 | 47 | 174 | 4.3 | 5.2 | 0.00 | 0.00 | 0.00 | 40 | 1015.0 |
| 20260505120504 | 47 | 180 | 2.6 | 6.1 | 0.00 | 0.00 | 0.00 | 40 | 1015.0 |
| 20260505120005 | 47 | 186 | 5.2 | 7.8 | 0.00 | 0.00 | 0.00 | 40 | 1015.0 |
| 20260505115504 | 47 | 204 | 5.2 | 7.8 | 0.00 | 0.00 | 0.00 | 39 | 1015.2 |
| 20260505115005 | 46 | 177 | 5.2 | 7.8 | 0.00 | 0.00 | 0.00 | 41 | 1015.2 |
| 20260505113005 | 41 | 102 | 1.7 | 4.3 | 0.00 | 0.00 | 0.00 | 50 | 1014.5 |
| 20260505112504 | 40 | 53 | 0.9 | 1.7 | 0.00 | 0.00 | 0.00 | 52 | 1014.5 |
| 20260505112005 | 41 | 53 | 0.9 | 2.6 | 0.00 | 0.00 | 0.00 | 51 | 1014.5 |
| 20260505111504 | 41 | 53 | 0.9 | 2.6 | 0.00 | 0.00 | 0.00 | 51 | 1014.5 |
| 20260505111004 | 41 | 53 | 2.6 | 2.6 | 0.00 | 0.00 | 0.00 | 50 | 1014.5 |
| 20260505110504 | 41 | 71 | 0.9 | 5.2 | 0.00 | 0.00 | 0.00 | 50 | 1014.5 |
| 20260505102004 | 44 | 152 | 2.6 | 5.2 | 0.00 | 0.00 | 0.00 | 41 | 1014.3 |
| 20260505101505 | 44 | 155 | 2.6 | 4.3 | 0.00 | 0.00 | 0.00 | 42 | 1014.3 |
| 20260505101004 | 43 | 190 | 0.9 | 2.6 | 0.00 | 0.00 | 0.00 | 44 | 1014.3 |
| 20260505100505 | 43 | 171 | 1.7 | 2.6 | 0.00 | 0.00 | 0.00 | 43 | 1014.3 |
| 20260505100004 | 43 | 55 | 0.9 | 1.7 | 0.00 | 0.00 | 0.00 | 43 | 1014.3 |
| 20260505094504 | 45 | 54 | 0.9 | 2.6 | 0.00 | 0.00 | 0.00 | 39 | 1014.3 |
| 20260505094005 | 46 | 54 | 0.0 | 2.6 | 0.00 | 0.00 | 0.00 | 39 | 1014.3 |
| 20260505093504 | 47 | 54 | 1.7 | 2.6 | 0.00 | 0.00 | 0.00 | 37 | 1014.3 |
| 20260505093005 | 48 | 64 | 1.7 | 2.6 | 0.00 | 0.00 | 0.00 | 36 | 1014.5 |
| 20260505092004 | 48 | 159 | 2.6 | 7.8 | 0.00 | 0.00 | 0.00 | 34 | 1014.4 |
| 20260505091005 | 49 | 179 | 5.2 | 10.4 | 0.00 | 0.00 | 0.00 | 33 | 1014.4 |
| 20260505090505 | 49 | 180 | 5.2 | 12.2 | 0.00 | 0.00 | 0.00 | 33 | 1014.2 |
| 20260505090004 | 49 | 197 | 5.2 | 12.2 | 0.00 | 0.00 | 0.00 | 33 | 1014.2 |
| 20260505085504 | 49 | 174 | 7.8 | 14.8 | 0.00 | 0.00 | 0.00 | 32 | 1014.1 |
| 20260505085004 | 49 | 179 | 8.7 | 14.8 | 0.00 | 0.00 | 0.00 | 32 | 1014.1 |
| 20260505084504 | 49 | 174 | 10.4 | 14.8 | 0.00 | 0.00 | 0.00 | 31 | 1014.7 |
| 20260505084004 | 49 | 175 | 8.7 | 13.9 | 0.00 | 0.00 | 0.00 | 32 | 1014.7 |
| 20260505083504 | 49 | 183 | 9.6 | 13.9 | 0.00 | 0.00 | 0.00 | 32 | 1014.7 |
| 20260505083005 | 49 | 179 | 8.7 | 13.9 | 0.00 | 0.00 | 0.00 | 32 | 1014.7 |
| 20260505082504 | 49 | 183 | 7.0 | 10.4 | 0.00 | 0.00 | 0.00 | 32 | 1014.7 |
| 20260505082004 | 49 | 178 | 7.8 | 8.7 | 0.00 | 0.00 | 0.00 | 32 | 1014.6 |
| 20260505081004 | 49 | 180 | 5.2 | 8.7 | 0.00 | 0.00 | 0.00 | 32 | 1014.8 |
| 20260505080504 | 50 | 179 | 6.1 | 11.3 | 0.00 | 0.00 | 0.00 | 31 | 1014.8 |
| 20260505080004 | 50 | 176 | 7.8 | 11.3 | 0.00 | 0.00 | 0.00 | 31 | 1014.8 |
| 20260505075504 | 50 | 170 | 7.8 | 11.3 | 0.00 | 0.00 | 0.00 | 31 | 1014.8 |
| 20260505075005 | 50 | 167 | 7.0 | 8.7 | 0.00 | 0.00 | 0.00 | 31 | 1014.9 |
| 20260505074004 | 50 | 189 | 6.1 | 10.4 | 0.00 | 0.00 | 0.00 | 33 | 1015.0 |
| 20260505073004 | 51 | 179 | 5.2 | 10.4 | 0.00 | 0.00 | 0.00 | 33 | 1015.0 |
| 20260505072504 | 51 | 173 | 7.0 | 10.4 | 0.00 | 0.01 | 0.00 | 32 | 1015.0 |
| 20260505072004 | 50 | 168 | 6.1 | 10.4 | 0.00 | 0.01 | 0.00 | 32 | 1015.0 |
| 20260505071504 | 50 | 165 | 5.2 | 7.8 | 0.00 | 0.01 | 0.00 | 34 | 1014.9 |
| 20260505071005 | 50 | 164 | 5.2 | 7.0 | 0.00 | 0.01 | 0.00 | 34 | 1014.9 |
| 20260505070504 | 49 | 168 | 4.3 | 6.1 | 0.00 | 0.01 | 0.00 | 35 | 1014.9 |
| 20260505070004 | 48 | 164 | 3.5 | 5.2 | 0.00 | 0.01 | 0.00 | 37 | 1014.9 |
| 20260505065504 | 47 | 174 | 1.7 | 5.2 | 0.00 | 0.01 | 0.00 | 38 | 1014.9 |
| 20260505063504 | 49 | 197 | 4.3 | 7.8 | 0.00 | 0.01 | 0.00 | 38 | 1014.4 |
| 20260505063004 | 48 | 196 | 4.3 | 7.8 | 0.00 | 0.01 | 0.00 | 40 | 1014.4 |
| 20260505062504 | 46 | 180 | 2.6 | 6.1 | 0.00 | 0.01 | 0.00 | 42 | 1014.4 |
| 20260505061504 | 44 | 87 | 0.0 | 2.6 | 0.00 | 0.01 | 0.00 | 50 | 1014.4 |
| 20260505061004 | 44 | 31 | 0.9 | 2.6 | 0.00 | 0.01 | 0.00 | 50 | 1014.3 |
| 20260505060504 | 45 | 156 | 1.7 | 2.6 | 0.00 | 0.01 | 0.00 | 47 | 1014.2 |
| 20260505060005 | 45 | 42 | 0.0 | 2.6 | 0.00 | 0.01 | 0.00 | 48 | 1014.6 |
| 20260505055505 | 45 | 42 | 0.9 | 2.6 | 0.00 | 0.01 | 0.01 | 48 | 1014.6 |
| 20260505055006 | 45 | 31 | 0.0 | 5.2 | 0.00 | 0.01 | 0.01 | 47 | 1014.6 |
| 20260505054505 | 45 | 30 | 1.7 | 5.2 | 0.00 | 0.01 | 0.01 | 47 | 1014.4 |
| 20260505054005 | 45 | 74 | 2.6 | 4.3 | 0.00 | 0.01 | 0.01 | 47 | 1014.4 |
| 20260505053005 | 45 | 25 | 2.6 | 5.2 | 0.00 | 0.01 | 0.01 | 48 | 1014.4 |
| 20260505052505 | 45 | 55 | 2.6 | 5.2 | 0.00 | 0.01 | 0.01 | 48 | 1014.1 |
| 20260505052005 | 45 | 37 | 4.3 | 5.2 | 0.00 | 0.01 | 0.01 | 49 | 1014.1 |
| 20260505051505 | 45 | 37 | 4.3 | 5.2 | 0.00 | 0.01 | 0.01 | 49 | 1014.4 |
| 20260505051005 | 45 | 40 | 3.5 | 5.2 | 0.00 | 0.01 | 0.01 | 49 | 1014.4 |
| 20260505050505 | 45 | 39 | 4.3 | 5.2 | 0.00 | 0.01 | 0.01 | 48 | 1014.4 |
| 20260505041505 | 45 | 46 | 2.6 | 2.6 | 0.00 | 0.01 | 0.01 | 48 | 1014.4 |
| 20260505041005 | 45 | 45 | 2.6 | 2.6 | 0.00 | 0.01 | 0.01 | 48 | 1014.4 |
| 20260505040505 | 45 | 33 | 0.9 | 2.6 | 0.00 | 0.01 | 0.01 | 48 | 1014.3 |
| 20260505040006 | 45 | 40 | 1.7 | 4.3 | 0.00 | 0.01 | 0.01 | 47 | 1014.3 |
| 20260505035505 | 46 | 48 | 3.5 | 5.2 | 0.00 | 0.01 | 0.01 | 46 | 1014.3 |
| 20260505035006 | 46 | 48 | 4.3 | 5.2 | 0.00 | 0.01 | 0.01 | 45 | 1014.3 |
| 20260505034005 | 46 | 40 | 2.6 | 4.3 | 0.00 | 0.01 | 0.01 | 45 | 1014.2 |
| 20260505033506 | 46 | 34 | 1.7 | 4.3 | 0.00 | 0.01 | 0.01 | 46 | 1014.2 |
| 20260505033005 | 46 | 44 | 3.5 | 4.3 | 0.00 | 0.01 | 0.01 | 45 | 1014.2 |
| 20260505032506 | 47 | 39 | 3.5 | 4.3 | 0.00 | 0.01 | 0.01 | 45 | 1013.9 |
| 20260505032005 | 47 | 42 | 2.6 | 5.2 | 0.00 | 0.01 | 0.01 | 44 | 1013.9 |
| 20260505031506 | 48 | 39 | 4.3 | 5.2 | 0.00 | 0.01 | 0.01 | 44 | 1013.9 |
| 20260505031006 | 48 | 42 | 4.3 | 5.2 | 0.00 | 0.01 | 0.01 | 43 | 1013.9 |
| 20260505030505 | 48 | 42 | 4.3 | 5.2 | 0.00 | 0.01 | 0.01 | 44 | 1013.8 |
| 20260505030005 | 48 | 45 | 3.5 | 4.3 | 0.00 | 0.01 | 0.01 | 44 | 1013.8 |
| 20260505025005 | 49 | 41 | 3.5 | 4.3 | 0.00 | 0.01 | 0.01 | 43 | 1013.9 |
| 20260505024505 | 49 | 182 | 1.7 | 2.6 | 0.00 | 0.01 | 0.01 | 43 | 1013.9 |
| 20260505023505 | 50 | 182 | 2.6 | 2.6 | 0.00 | 0.01 | 0.01 | 40 | 1013.9 |
| 20260505023006 | 52 | 182 | 2.6 | 2.6 | 0.00 | 0.01 | 0.01 | 39 | 1013.8 |
| 20260505022505 | 53 | 182 | 1.7 | 1.7 | 0.00 | 0.01 | 0.01 | 36 | 1013.8 |
| 20260505022006 | 55 | 182 | 0.0 | 0.9 | 0.00 | 0.01 | 0.01 | 33 | 1013.8 |
| 20260505021505 | 56 | 182 | 0.0 | 2.6 | 0.00 | 0.01 | 0.01 | 31 | 1013.8 |
| 20260505021006 | 57 | 182 | 0.9 | 2.6 | 0.00 | 0.01 | 0.01 | 30 | 1013.6 |
| 20260505020506 | 57 | 182 | 1.7 | 2.6 | 0.00 | 0.01 | 0.01 | 27 | 1013.6 |
| 20260505020004 | 57 | 192 | 2.6 | 2.6 | 0.00 | 0.01 | 0.01 | 27 | 1013.7 |
| 20260505015005 | 58 | 192 | 2.6 | 2.6 | 0.00 | 0.01 | 0.01 | 27 | 1013.7 |
| 20260505014505 | 58 | 200 | 2.6 | 2.6 | 0.00 | 0.01 | 0.01 | 27 | 1013.7 |
| 20260505014005 | 58 | 200 | 2.6 | 2.6 | 0.00 | 0.01 | 0.01 | 27 | 1013.7 |
| 20260505013005 | 58 | 207 | 1.7 | 2.6 | 0.00 | 0.01 | 0.01 | 28 | 1013.7 |
| 20260505012505 | 59 | 207 | 1.7 | 4.3 | 0.00 | 0.01 | 0.01 | 28 | 1013.7 |
| 20260505012005 | 59 | 216 | 2.6 | 4.3 | 0.00 | 0.01 | 0.01 | 27 | 1013.6 |
| 20260505011505 | 59 | 240 | 2.6 | 5.2 | 0.00 | 0.01 | 0.01 | 28 | 1013.6 |
| 20260505011006 | 60 | 240 | 1.7 | 5.2 | 0.00 | 0.01 | 0.01 | 28 | 1013.6 |
| 20260505010505 | 60 | 230 | 3.5 | 6.1 | 0.00 | 0.01 | 0.01 | 26 | 1013.7 |
| 20260505010005 | 60 | 232 | 4.3 | 7.8 | 0.00 | 0.01 | 0.01 | 26 | 1013.6 |
| 20260505005505 | 60 | 235 | 5.2 | 8.7 | 0.00 | 0.01 | 0.01 | 25 | 1013.6 |
| 20260505004505 | 60 | 253 | 5.2 | 10.4 | 0.00 | 0.01 | 0.01 | 26 | 1013.7 |
| 20260505004004 | 61 | 241 | 6.1 | 10.4 | 0.00 | 0.01 | 0.01 | 26 | 1013.8 |
| 20260505003505 | 61 | 245 | 5.2 | 10.4 | 0.00 | 0.01 | 0.01 | 24 | 1013.8 |
| 20260505003005 | 61 | 235 | 4.3 | 10.4 | 0.00 | 0.01 | 0.01 | 27 | 1013.9 |
| 20260505002504 | 61 | 259 | 6.1 | 10.4 | 0.00 | 0.01 | 0.01 | 26 | 1013.8 |
| 20260505002005 | 61 | 244 | 5.2 | 11.3 | 0.00 | 0.01 | 0.01 | 27 | 1013.8 |
| 20260505001505 | 61 | 246 | 6.1 | 13.0 | 0.00 | 0.01 | 0.01 | 24 | 1013.9 |
| 20260505001004 | 61 | 238 | 8.7 | 13.0 | 0.00 | 0.01 | 0.01 | 24 | 1014.4 |
| 20260505000005 | 62 | 247 | 9.6 | 12.2 | 0.00 | 0.01 | 0.01 | 25 | 1014.4 |
| 20260504235505 | 62 | 255 | 6.1 | 13.9 | 0.00 | 0.01 | 0.01 | 25 | 1014.4 |
| 20260504234505 | 62 | 237 | 8.7 | 14.8 | 0.00 | 0.01 | 0.01 | 24 | 1014.4 |
| 20260504234005 | 63 | 216 | 8.7 | 14.8 | 0.00 | 0.01 | 0.01 | 23 | 1014.4 |
| 20260504233005 | 63 | 200 | 7.8 | 15.6 | 0.00 | 0.01 | 0.01 | 24 | 1014.5 |
| 20260504232505 | 64 | 235 | 10.4 | 15.6 | 0.00 | 0.01 | 0.01 | 23 | 1014.5 |
| 20260504231505 | 64 | 222 | 10.4 | 14.8 | 0.00 | 0.01 | 0.01 | 26 | 1014.5 |
| 20260504231005 | 64 | 221 | 11.3 | 15.6 | 0.00 | 0.01 | 0.01 | 26 | 1014.3 |
| 20260504230505 | 64 | 201 | 11.3 | 15.6 | 0.00 | 0.01 | 0.01 | 25 | 1014.3 |
| 20260504230005 | 63 | 196 | 10.4 | 14.8 | 0.00 | 0.01 | 0.01 | 26 | 1014.3 |
| 20260504225505 | 63 | 210 | 10.4 | 14.8 | 0.00 | 0.01 | 0.01 | 26 | 1014.3 |
| 20260504225005 | 63 | 203 | 8.7 | 14.8 | 0.00 | 0.01 | 0.01 | 28 | 1014.3 |
| 20260504224505 | 63 | 244 | 9.6 | 13.0 | 0.00 | 0.01 | 0.01 | 28 | 1014.3 |
| 20260504224005 | 63 | 225 | 8.7 | 13.0 | 0.00 | 0.01 | 0.01 | 27 | 1014.4 |
| 20260504222505 | 62 | 216 | 7.0 | 13.0 | 0.00 | 0.01 | 0.01 | 30 | 1014.8 |
| 20260504222005 | 62 | 232 | 7.8 | 15.6 | 0.00 | 0.01 | 0.01 | 29 | 1014.8 |
| 20260504221505 | 63 | 243 | 12.2 | 15.6 | 0.00 | 0.01 | 0.01 | 28 | 1014.8 |
| 20260504221005 | 63 | 183 | 8.7 | 12.2 | 0.00 | 0.01 | 0.01 | 27 | 1014.8 |
| 20260504220505 | 63 | 241 | 6.1 | 17.4 | 0.00 | 0.01 | 0.01 | 29 | 1014.8 |
| 20260504220004 | 64 | 240 | 9.6 | 17.4 | 0.00 | 0.01 | 0.01 | 27 | 1014.8 |
| 20260504215505 | 63 | 199 | 7.0 | 13.9 | 0.00 | 0.01 | 0.01 | 28 | 1014.9 |
| 20260504215005 | 63 | 197 | 7.8 | 15.6 | 0.00 | 0.01 | 0.01 | 29 | 1014.9 |
| 20260504214505 | 64 | 231 | 10.4 | 15.6 | 0.00 | 0.01 | 0.01 | 28 | 1014.9 |
| 20260504214005 | 64 | 188 | 9.6 | 14.8 | 0.00 | 0.01 | 0.01 | 29 | 1014.9 |
| 20260504213505 | 65 | 202 | 10.4 | 17.4 | 0.00 | 0.01 | 0.01 | 28 | 1015.4 |
| 20260504213005 | 64 | 215 | 12.2 | 17.4 | 0.00 | 0.01 | 0.01 | 28 | 1015.5 |
| 20260504212505 | 64 | 210 | 13.0 | 17.4 | 0.00 | 0.01 | 0.01 | 28 | 1015.5 |
| 20260504212005 | 63 | 227 | 10.4 | 13.0 | 0.00 | 0.01 | 0.01 | 31 | 1015.5 |
| 20260504211505 | 62 | 202 | 7.0 | 13.0 | 0.00 | 0.01 | 0.01 | 29 | 1015.5 |
| 20260504211005 | 62 | 184 | 7.8 | 15.6 | 0.00 | 0.01 | 0.01 | 30 | 1015.5 |
| 20260504210505 | 62 | 208 | 8.7 | 15.6 | 0.00 | 0.01 | 0.01 | 29 | 1015.8 |
| 20260504210005 | 63 | 222 | 10.4 | 14.8 | 0.00 | 0.01 | 0.01 | 31 | 1015.8 |
| 20260504205505 | 63 | 233 | 7.8 | 13.0 | 0.00 | 0.01 | 0.01 | 31 | 1015.9 |
| 20260504205005 | 63 | 242 | 7.8 | 15.6 | 0.00 | 0.01 | 0.01 | 32 | 1016.1 |
| 20260504204005 | 63 | 216 | 13.0 | 17.4 | 0.00 | 0.01 | 0.01 | 31 | 1016.1 |
| 20260504203505 | 62 | 188 | 11.3 | 15.6 | 0.00 | 0.01 | 0.01 | 31 | 1016.1 |
| 20260504203005 | 62 | 203 | 8.7 | 14.8 | 0.00 | 0.01 | 0.01 | 34 | 1016.1 |
| 20260504202504 | 61 | 242 | 7.8 | 14.8 | 0.00 | 0.01 | 0.01 | 34 | 1016.2 |
| 20260504202004 | 61 | 236 | 10.4 | 14.8 | 0.00 | 0.01 | 0.01 | 33 | 1016.4 |
| 20260504201505 | 61 | 211 | 6.1 | 13.0 | 0.00 | 0.01 | 0.01 | 36 | 1016.7 |
| 20260504201004 | 61 | 189 | 8.7 | 13.0 | 0.00 | 0.01 | 0.01 | 36 | 1016.7 |
| 20260504200505 | 61 | 232 | 7.0 | 14.8 | 0.00 | 0.01 | 0.01 | 37 | 1016.7 |
| 20260504200004 | 61 | 182 | 10.4 | 14.8 | 0.00 | 0.01 | 0.01 | 36 | 1016.4 |
| 20260504195504 | 60 | 195 | 6.1 | 12.2 | 0.00 | 0.01 | 0.01 | 39 | 1016.4 |
| 20260504195004 | 60 | 223 | 7.0 | 12.2 | 0.00 | 0.01 | 0.01 | 38 | 1016.6 |
| 20260504194505 | 60 | 237 | 7.8 | 15.6 | 0.00 | 0.01 | 0.01 | 37 | 1016.5 |
| 20260504194005 | 60 | 206 | 7.8 | 15.6 | 0.00 | 0.01 | 0.01 | 38 | 1016.5 |
| 20260504193504 | 60 | 179 | 12.2 | 15.6 | 0.00 | 0.01 | 0.01 | 39 | 1016.5 |
| 20260504193005 | 60 | 184 | 6.1 | 13.9 | 0.00 | 0.01 | 0.01 | 39 | 1016.6 |
| 20260504192504 | 60 | 226 | 8.7 | 17.4 | 0.00 | 0.01 | 0.01 | 40 | 1016.6 |
| 20260504192005 | 60 | 182 | 12.2 | 17.4 | 0.00 | 0.01 | 0.01 | 40 | 1016.6 |
| 20260504191504 | 60 | 167 | 7.8 | 13.0 | 0.00 | 0.01 | 0.01 | 40 | 1016.8 |
| 20260504191004 | 60 | 197 | 5.2 | 13.0 | 0.00 | 0.01 | 0.01 | 39 | 1016.8 |
| 20260504190505 | 60 | 185 | 9.6 | 13.9 | 0.00 | 0.01 | 0.01 | 38 | 1016.8 |
| 20260504190005 | 60 | 237 | 7.8 | 13.9 | 0.00 | 0.01 | 0.01 | 39 | 1017.0 |
| 20260504185504 | 60 | 212 | 9.6 | 13.9 | 0.00 | 0.01 | 0.01 | 41 | 1017.0 |
| 20260504185005 | 59 | 209 | 5.2 | 13.0 | 0.00 | 0.01 | 0.01 | 41 | 1017.0 |
| 20260504184505 | 60 | 206 | 8.7 | 13.0 | 0.00 | 0.01 | 0.01 | 41 | 1017.1 |
| 20260504184004 | 60 | 203 | 8.7 | 17.4 | 0.00 | 0.01 | 0.01 | 41 | 1017.3 |
| 20260504183005 | 59 | 241 | 7.8 | 12.2 | 0.00 | 0.01 | 0.01 | 45 | 1017.4 |
| 20260504182504 | 59 | 231 | 7.8 | 12.2 | 0.00 | 0.01 | 0.01 | 45 | 1017.4 |
| 20260504182005 | 59 | 236 | 7.0 | 11.3 | 0.00 | 0.01 | 0.01 | 45 | 1017.4 |
| 20260504181505 | 59 | 255 | 7.8 | 13.0 | 0.00 | 0.01 | 0.01 | 45 | 1017.4 |
| 20260504181005 | 60 | 218 | 7.8 | 13.9 | 0.00 | 0.01 | 0.01 | 43 | 1017.4 |
| 20260504180505 | 59 | 200 | 7.8 | 13.9 | 0.00 | 0.01 | 0.01 | 45 | 1017.4 |
| 20260504180004 | 59 | 221 | 10.4 | 13.9 | 0.00 | 0.01 | 0.01 | 43 | 1017.4 |
| 20260504175504 | 59 | 208 | 7.8 | 13.0 | 0.00 | 0.01 | 0.01 | 44 | 1017.4 |
| 20260504175004 | 59 | 202 | 7.8 | 13.0 | 0.00 | 0.01 | 0.01 | 44 | 1017.5 |
| 20260504174505 | 59 | 202 | 6.1 | 10.4 | 0.00 | 0.01 | 0.01 | 46 | 1017.6 |
| 20260504174004 | 58 | 189 | 7.0 | 12.2 | 0.00 | 0.01 | 0.01 | 47 | 1017.6 |
| 20260504173505 | 59 | 205 | 4.3 | 12.2 | 0.00 | 0.01 | 0.01 | 46 | 1017.6 |
| 20260504173005 | 59 | 204 | 7.0 | 11.3 | 0.00 | 0.01 | 0.01 | 46 | 1017.6 |
| 20260504172005 | 58 | 163 | 5.2 | 10.4 | 0.00 | 0.01 | 0.01 | 46 | 1017.5 |
| 20260504171005 | 57 | 194 | 7.8 | 10.4 | 0.00 | 0.01 | 0.01 | 47 | 1017.5 |